EFW16HC EGKK-LFMN

Flight info

Callsign EFW16HC
Flight time 1h 36m
Altitude 33000
Route SFD Y47 BENBO L612 HAWKE UL612 VEULE DCT KOTAP DCT KETEX DCT KOTIS DCT KUKOR DCT UTUVA DCT LERGA DCT LIQID DCT LATAM DCT TUNUR DCT NISAR
Aircraft A321/M-SDE3FGIJ1KRWXY/SB1

Departure

Time 2026-05-08 04:14
Airport London Gatwick Airport (EGKK)

Arrival

Time 2026-05-08 05:50
Airport Nice-Côte d'Azur Airport (LFMN)
Time Latitude Longitude Altitude Speed Heading
2026-05-08 03:46 51.15483 -0.16964 198 ft 0 kts 348°
2026-05-08 03:59 51.15482 -0.16964 198 ft 0 kts 348°
2026-05-08 04:00 51.15473 -0.16961 198 ft 0 kts 348°
2026-05-08 04:00 51.15463 -0.16957 198 ft 2 kts 334°
2026-05-08 04:00 51.15451 -0.16942 198 ft 2 kts 310°
2026-05-08 04:00 51.15443 -0.16922 198 ft 2 kts 287°
2026-05-08 04:01 51.15441 -0.16898 198 ft 1 kts 265°
2026-05-08 04:01 51.15442 -0.16887 198 ft 1 kts 255°
2026-05-08 04:01 51.15443 -0.16882 198 ft 0 kts 258°
2026-05-08 04:02 51.15443 -0.16883 198 ft 0 kts 258°
2026-05-08 04:05 51.15441 -0.16893 198 ft 1 kts 258°
2026-05-08 04:05 51.15437 -0.16925 198 ft 5 kts 258°
2026-05-08 04:06 51.15426 -0.17006 198 ft 9 kts 258°
2026-05-08 04:06 51.15411 -0.17116 198 ft 10 kts 256°
2026-05-08 04:06 51.15383 -0.17218 198 ft 8 kts 231°
2026-05-08 04:06 51.15343 -0.17241 198 ft 6 kts 178°
2026-05-08 04:07 51.15310 -0.17280 198 ft 7 kts 257°
2026-05-08 04:07 51.15303 -0.17365 198 ft 9 kts 266°
2026-05-08 04:07 51.15289 -0.17502 198 ft 15 kts 258°
2026-05-08 04:07 51.15262 -0.17696 198 ft 21 kts 258°
2026-05-08 04:08 51.15228 -0.17950 198 ft 24 kts 258°
2026-05-08 04:08 51.15192 -0.18208 198 ft 23 kts 258°
2026-05-08 04:08 51.15163 -0.18455 198 ft 22 kts 260°
2026-05-08 04:08 51.15134 -0.18692 198 ft 21 kts 257°
2026-05-08 04:09 51.15100 -0.18923 198 ft 20 kts 259°
2026-05-08 04:09 51.15069 -0.19156 198 ft 23 kts 257°
2026-05-08 04:09 51.15032 -0.19428 198 ft 25 kts 258°
2026-05-08 04:09 51.14995 -0.19699 198 ft 24 kts 258°
2026-05-08 04:10 51.14959 -0.19958 198 ft 23 kts 258°
2026-05-08 04:10 51.14925 -0.20208 198 ft 22 kts 257°
2026-05-08 04:10 51.14892 -0.20445 198 ft 22 kts 258°
2026-05-08 04:10 51.14859 -0.20689 198 ft 22 kts 258°
2026-05-08 04:11 51.14827 -0.20925 198 ft 21 kts 257°
2026-05-08 04:11 51.14795 -0.21128 198 ft 11 kts 252°
2026-05-08 04:11 51.14772 -0.21255 198 ft 12 kts 259°
2026-05-08 04:11 51.14751 -0.21371 198 ft 8 kts 237°
2026-05-08 04:12 51.14695 -0.21395 198 ft 9 kts 165°
2026-05-08 04:12 51.14635 -0.21337 198 ft 10 kts 159°
2026-05-08 04:12 51.14565 -0.21298 198 ft 11 kts 149°
2026-05-08 04:12 51.14524 -0.21226 198 ft 5 kts 120°
2026-05-08 04:13 51.14518 -0.21170 198 ft 3 kts 82°
2026-05-08 04:13 51.14521 -0.21150 198 ft 2 kts 77°
2026-05-08 04:13 51.14570 -0.20787 198 ft 72 kts 77°
2026-05-08 04:13 51.14734 -0.19603 198 ft 143 kts 78°
2026-05-08 04:14 51.14976 -0.17823 492 ft 174 kts 78°
2026-05-08 04:14 51.15217 -0.16018 1341 ft 168 kts 78°
2026-05-08 04:14 51.15462 -0.14181 1786 ft 176 kts 78°
2026-05-08 04:14 51.15745 -0.12220 2036 ft 192 kts 78°
2026-05-08 04:15 51.16051 -0.10039 2337 ft 207 kts 84°
2026-05-08 04:15 51.15892 -0.07697 2573 ft 223 kts 116°
2026-05-08 04:15 51.14951 -0.05783 3144 ft 225 kts 145°
2026-05-08 04:15 51.13478 -0.04807 3567 ft 239 kts 168°
2026-05-08 04:16 51.11833 -0.04287 4237 ft 243 kts 169°
2026-05-08 04:16 51.10177 -0.03771 4710 ft 245 kts 168°
2026-05-08 04:16 51.08525 -0.03096 5126 ft 247 kts 164°
2026-05-08 04:16 51.06883 -0.02328 5381 ft 248 kts 163°
2026-05-08 04:17 51.05230 -0.01543 5631 ft 249 kts 163°
2026-05-08 04:17 51.03557 -0.00748 5837 ft 250 kts 163°
2026-05-08 04:17 51.01897 0.00039 5961 ft 250 kts 163°
2026-05-08 04:17 51.00229 0.00826 5979 ft 255 kts 163°
2026-05-08 04:18 50.98507 0.01640 5984 ft 257 kts 163°
2026-05-08 04:18 50.96814 0.02442 5986 ft 257 kts 163°
2026-05-08 04:18 50.95099 0.03252 5987 ft 257 kts 163°
2026-05-08 04:18 50.93372 0.04067 5988 ft 257 kts 163°
2026-05-08 04:19 50.91672 0.04868 5987 ft 257 kts 163°
2026-05-08 04:19 50.89948 0.05680 5988 ft 258 kts 163°
2026-05-08 04:19 50.88240 0.06484 5988 ft 258 kts 163°
2026-05-08 04:19 50.86526 0.07289 5988 ft 258 kts 163°
2026-05-08 04:20 50.84808 0.08095 5988 ft 258 kts 163°
2026-05-08 04:20 50.83074 0.08908 5988 ft 258 kts 163°
2026-05-08 04:20 50.81370 0.09705 5988 ft 258 kts 163°
2026-05-08 04:20 50.79651 0.10509 5988 ft 258 kts 163°
2026-05-08 04:21 50.77918 0.11320 5988 ft 258 kts 163°
2026-05-08 04:21 50.76160 0.11871 5989 ft 258 kts 177°
2026-05-08 04:21 50.74379 0.11626 6221 ft 259 kts 191°
2026-05-08 04:21 50.72639 0.11018 6655 ft 261 kts 193°
2026-05-08 04:22 50.70865 0.10345 7304 ft 265 kts 193°
2026-05-08 04:22 50.69067 0.09667 8010 ft 268 kts 193°
2026-05-08 04:22 50.67259 0.08994 8711 ft 270 kts 193°
2026-05-08 04:22 50.65450 0.08330 9406 ft 272 kts 193°
2026-05-08 04:23 50.63599 0.07656 10033 ft 277 kts 193°
2026-05-08 04:23 50.61687 0.06962 10472 ft 288 kts 194°
2026-05-08 04:23 50.59705 0.06243 10761 ft 305 kts 194°
2026-05-08 04:23 50.57568 0.05469 11051 ft 321 kts 194°
2026-05-08 04:24 50.55374 0.04677 11352 ft 335 kts 194°
2026-05-08 04:24 50.53085 0.03853 11899 ft 340 kts 194°
2026-05-08 04:24 50.50784 0.03026 12561 ft 342 kts 194°
2026-05-08 04:24 50.48471 0.02193 13186 ft 344 kts 194°
2026-05-08 04:25 50.46081 0.01748 13757 ft 349 kts 178°
2026-05-08 04:25 50.43707 0.02595 14337 ft 354 kts 158°
2026-05-08 04:25 50.41581 0.04528 14952 ft 357 kts 148°
2026-05-08 04:25 50.39526 0.06711 15530 ft 360 kts 147°
2026-05-08 04:26 50.37460 0.08919 16084 ft 362 kts 147°
2026-05-08 04:26 50.35383 0.11097 16638 ft 364 kts 148°
2026-05-08 04:26 50.33278 0.13280 17179 ft 367 kts 148°
2026-05-08 04:26 50.31157 0.15467 17709 ft 369 kts 148°
2026-05-08 04:27 50.29003 0.17685 18236 ft 371 kts 148°
2026-05-08 04:27 50.26848 0.19900 18729 ft 373 kts 148°
2026-05-08 04:27 50.24677 0.22130 19199 ft 376 kts 148°
2026-05-08 04:27 50.22485 0.24380 19659 ft 379 kts 148°
2026-05-08 04:28 50.20289 0.26631 20101 ft 382 kts 148°
2026-05-08 04:28 50.18069 0.28914 20548 ft 385 kts 148°
2026-05-08 04:28 50.15840 0.31208 20978 ft 388 kts 148°
2026-05-08 04:28 50.13584 0.33528 21398 ft 390 kts 148°
2026-05-08 04:29 50.11324 0.35849 21812 ft 393 kts 148°
2026-05-08 04:29 50.09047 0.38183 22210 ft 396 kts 148°
2026-05-08 04:29 50.06749 0.40537 22600 ft 398 kts 148°
2026-05-08 04:29 50.04411 0.42928 22993 ft 400 kts 148°
2026-05-08 04:30 50.02094 0.45294 23362 ft 403 kts 148°
2026-05-08 04:30 49.99751 0.47686 23725 ft 405 kts 149°
2026-05-08 04:30 49.97387 0.50095 24082 ft 408 kts 149°
2026-05-08 04:30 49.95041 0.52482 24420 ft 410 kts 149°
2026-05-08 04:31 49.92637 0.54925 24766 ft 412 kts 149°
2026-05-08 04:31 49.90259 0.57339 25099 ft 414 kts 148°
2026-05-08 04:31 49.87840 0.59791 25429 ft 417 kts 148°
2026-05-08 04:31 49.85416 0.62287 25750 ft 419 kts 147°
2026-05-08 04:32 49.83045 0.64904 26067 ft 422 kts 146°
2026-05-08 04:32 49.80636 0.67572 26384 ft 424 kts 147°
2026-05-08 04:32 49.78264 0.70196 26683 ft 426 kts 147°
2026-05-08 04:32 49.75834 0.72881 26977 ft 428 kts 147°
2026-05-08 04:33 49.73431 0.75534 27259 ft 430 kts 147°
2026-05-08 04:33 49.70992 0.78224 27543 ft 432 kts 147°
2026-05-08 04:33 49.68540 0.80927 27814 ft 434 kts 147°
2026-05-08 04:33 49.66088 0.83624 28081 ft 436 kts 147°
2026-05-08 04:34 49.63620 0.86336 28355 ft 437 kts 147°
2026-05-08 04:34 49.61169 0.89027 28701 ft 437 kts 147°
2026-05-08 04:34 49.58715 0.91719 29068 ft 436 kts 147°
2026-05-08 04:34 49.56258 0.94410 29418 ft 435 kts 147°
2026-05-08 04:35 49.53782 0.97118 29749 ft 435 kts 147°
2026-05-08 04:35 49.51327 0.99799 30072 ft 434 kts 147°
2026-05-08 04:35 49.48888 1.02461 30389 ft 434 kts 147°
2026-05-08 04:35 49.46406 1.05166 30696 ft 434 kts 147°
2026-05-08 04:36 49.43959 1.07827 30986 ft 433 kts 147°
2026-05-08 04:36 49.41523 1.10475 31261 ft 434 kts 147°
2026-05-08 04:36 49.39045 1.13164 31503 ft 435 kts 147°
2026-05-08 04:36 49.36614 1.15800 31720 ft 436 kts 147°
2026-05-08 04:37 49.34114 1.18505 31939 ft 437 kts 147°
2026-05-08 04:37 49.31635 1.21185 32157 ft 438 kts 147°
2026-05-08 04:37 49.29149 1.23869 32366 ft 439 kts 147°
2026-05-08 04:37 49.26656 1.26558 32570 ft 441 kts 147°
2026-05-08 04:38 49.24168 1.29239 32774 ft 442 kts 147°
2026-05-08 04:38 49.21667 1.31930 32969 ft 443 kts 147°
2026-05-08 04:38 49.16608 1.37360 33036 ft 444 kts 147°
2026-05-08 04:39 49.11595 1.42730 33038 ft 444 kts 147°
2026-05-08 04:39 49.06534 1.48138 33039 ft 444 kts 147°
2026-05-08 04:40 49.01501 1.53501 33039 ft 444 kts 147°
2026-05-08 04:40 48.96462 1.58858 33039 ft 444 kts 147°
2026-05-08 04:41 48.91396 1.64231 33040 ft 443 kts 147°
2026-05-08 04:41 48.86351 1.69566 33039 ft 443 kts 148°
2026-05-08 04:42 48.81326 1.74866 33039 ft 443 kts 148°
2026-05-08 04:42 48.76275 1.80182 33039 ft 443 kts 148°
2026-05-08 04:43 48.71234 1.85474 33039 ft 443 kts 148°
2026-05-08 04:43 48.66219 1.90727 33039 ft 442 kts 148°
2026-05-08 04:44 48.61163 1.96009 33039 ft 442 kts 148°
2026-05-08 04:44 48.56106 2.01278 33039 ft 441 kts 148°
2026-05-08 04:45 48.51088 2.06495 33036 ft 441 kts 148°
2026-05-08 04:45 48.46041 2.11727 33034 ft 440 kts 148°
2026-05-08 04:46 48.41013 2.16929 33034 ft 440 kts 148°
2026-05-08 04:46 48.36011 2.22090 33035 ft 440 kts 149°
2026-05-08 04:47 48.30812 2.26825 33037 ft 437 kts 155°
2026-05-08 04:47 48.25314 2.30627 33037 ft 435 kts 161°
2026-05-08 04:48 48.19619 2.33441 33037 ft 432 kts 167°
2026-05-08 04:48 48.13825 2.35780 33037 ft 433 kts 166°
2026-05-08 04:49 48.08116 2.38565 33037 ft 434 kts 164°
2026-05-08 04:49 48.02422 2.41394 33037 ft 434 kts 164°
2026-05-08 04:50 47.96712 2.44225 33037 ft 434 kts 164°
2026-05-08 04:50 47.90971 2.47068 33037 ft 434 kts 164°
2026-05-08 04:51 47.85274 2.49881 33037 ft 435 kts 164°
2026-05-08 04:51 47.79543 2.52706 33037 ft 435 kts 164°
2026-05-08 04:52 47.73840 2.55511 33037 ft 435 kts 164°
2026-05-08 04:52 47.68107 2.58324 33037 ft 435 kts 164°
2026-05-08 04:53 47.62392 2.61122 33037 ft 435 kts 164°
2026-05-08 04:53 47.56649 2.63928 33037 ft 435 kts 164°
2026-05-08 04:54 47.50906 2.66726 33037 ft 435 kts 165°
2026-05-08 04:54 47.45193 2.69504 33035 ft 435 kts 165°
2026-05-08 04:55 47.39466 2.72283 33030 ft 436 kts 165°
2026-05-08 04:55 47.33690 2.75078 33022 ft 436 kts 165°
2026-05-08 04:56 47.27955 2.77848 33016 ft 437 kts 165°
2026-05-08 04:56 47.22210 2.80616 33012 ft 437 kts 165°
2026-05-08 04:57 47.16454 2.83379 33011 ft 437 kts 165°
2026-05-08 04:57 47.10675 2.86149 33011 ft 437 kts 165°
2026-05-08 04:58 47.04936 2.88895 33010 ft 437 kts 165°
2026-05-08 04:58 46.99156 2.91652 33011 ft 437 kts 165°
2026-05-08 04:59 46.93422 2.94382 33011 ft 437 kts 165°
2026-05-08 04:59 46.87654 2.97122 33011 ft 437 kts 165°
2026-05-08 05:00 46.81892 2.99853 33010 ft 437 kts 165°
2026-05-08 05:00 46.76121 3.02582 33007 ft 437 kts 165°
2026-05-08 05:01 46.70341 3.05310 33005 ft 437 kts 165°
2026-05-08 05:01 46.64585 3.08020 33004 ft 437 kts 165°
2026-05-08 05:02 46.58799 3.10739 33005 ft 437 kts 165°
2026-05-08 05:02 46.53052 3.13517 33007 ft 438 kts 162°
2026-05-08 05:03 46.47383 3.16579 33008 ft 438 kts 162°
2026-05-08 05:03 46.41663 3.19656 33009 ft 438 kts 162°
2026-05-08 05:04 46.36005 3.22695 33009 ft 438 kts 162°
2026-05-08 05:04 46.30313 3.25745 33009 ft 438 kts 162°
2026-05-08 05:05 46.24595 3.28803 33009 ft 438 kts 162°
2026-05-08 05:05 46.18941 3.31821 33009 ft 437 kts 162°
2026-05-08 05:06 46.13221 3.34867 33009 ft 437 kts 162°
2026-05-08 05:06 46.07556 3.37876 33009 ft 437 kts 162°
2026-05-08 05:07 46.01841 3.40906 33009 ft 437 kts 162°
2026-05-08 05:07 45.96161 3.43913 33009 ft 437 kts 162°
2026-05-08 05:08 45.90476 3.46912 33009 ft 437 kts 162°
2026-05-08 05:08 45.84760 3.49770 33009 ft 435 kts 166°
2026-05-08 05:09 45.78994 3.52255 33009 ft 435 kts 166°
2026-05-08 05:09 45.73187 3.54756 33009 ft 435 kts 166°
2026-05-08 05:10 45.64523 3.58479 33009 ft 435 kts 166°
2026-05-08 05:11 45.58783 3.60939 33009 ft 435 kts 166°
2026-05-08 05:11 45.52972 3.63423 33009 ft 435 kts 166°
2026-05-08 05:12 45.47179 3.65895 33008 ft 435 kts 167°
2026-05-08 05:12 45.41418 3.68349 33009 ft 435 kts 167°
2026-05-08 05:13 45.35653 3.70797 33009 ft 435 kts 167°
2026-05-08 05:13 45.30025 3.74006 33008 ft 441 kts 155°
2026-05-08 05:14 45.24978 3.79027 33009 ft 447 kts 142°
2026-05-08 05:14 45.20860 3.85627 33009 ft 454 kts 128°
2026-05-08 05:15 45.17432 3.93148 33009 ft 454 kts 126°
2026-05-08 05:15 45.14050 4.00669 33009 ft 453 kts 127°
2026-05-08 05:16 45.10657 4.08102 33009 ft 451 kts 127°
2026-05-08 05:16 45.07247 4.15519 33009 ft 451 kts 127°
2026-05-08 05:17 45.03744 4.22817 33009 ft 448 kts 131°
2026-05-08 05:17 44.99771 4.29495 33009 ft 444 kts 137°
2026-05-08 05:18 44.95601 4.35894 33009 ft 444 kts 137°
2026-05-08 05:18 44.91430 4.42285 33009 ft 444 kts 137°
2026-05-08 05:19 44.87233 4.48709 33010 ft 444 kts 137°
2026-05-08 05:19 44.83052 4.55097 33009 ft 444 kts 137°
2026-05-08 05:20 44.78887 4.61448 33008 ft 444 kts 137°
2026-05-08 05:20 44.74721 4.67785 33008 ft 443 kts 138°
2026-05-08 05:21 44.70531 4.74148 33009 ft 443 kts 138°
2026-05-08 05:21 44.66368 4.80450 33009 ft 442 kts 138°
2026-05-08 05:22 44.62209 4.86827 33009 ft 444 kts 137°
2026-05-08 05:22 44.58176 4.93310 33009 ft 443 kts 136°
2026-05-08 05:23 44.54124 4.99810 33009 ft 443 kts 136°
2026-05-08 05:23 44.50068 5.06266 33009 ft 443 kts 137°
2026-05-08 05:24 44.45989 5.12746 33009 ft 443 kts 136°
2026-05-08 05:24 44.41960 5.19135 32999 ft 443 kts 137°
2026-05-08 05:24 44.39877 5.22410 32621 ft 448 kts 138°
2026-05-08 05:25 44.37740 5.25501 32064 ft 447 kts 141°
2026-05-08 05:25 44.35461 5.28419 31536 ft 443 kts 144°
2026-05-08 05:25 44.33087 5.31114 31461 ft 443 kts 147°
2026-05-08 05:25 44.30661 5.33762 31331 ft 444 kts 147°
2026-05-08 05:26 44.28225 5.36417 31107 ft 444 kts 147°
2026-05-08 05:26 44.25791 5.39066 30681 ft 443 kts 147°
2026-05-08 05:26 44.23395 5.41674 30103 ft 440 kts 147°
2026-05-08 05:26 44.20985 5.44292 29427 ft 439 kts 147°
2026-05-08 05:27 44.18573 5.46907 28690 ft 440 kts 146°
2026-05-08 05:27 44.16185 5.49496 28108 ft 437 kts 146°
2026-05-08 05:27 44.13821 5.52061 27608 ft 432 kts 146°
2026-05-08 05:27 44.11467 5.54611 27097 ft 427 kts 146°
2026-05-08 05:28 44.09142 5.57126 26585 ft 424 kts 146°
2026-05-08 05:28 44.06827 5.59628 26073 ft 420 kts 146°
2026-05-08 05:28 44.04530 5.62108 25559 ft 417 kts 145°
2026-05-08 05:28 44.02248 5.64567 25042 ft 414 kts 145°
2026-05-08 05:29 43.99993 5.66997 24525 ft 412 kts 146°
2026-05-08 05:29 43.97742 5.69418 24006 ft 409 kts 146°
2026-05-08 05:29 43.95503 5.71826 23488 ft 407 kts 146°
2026-05-08 05:29 43.93272 5.74223 22983 ft 405 kts 145°
2026-05-08 05:30 43.91057 5.76600 22489 ft 403 kts 145°
2026-05-08 05:30 43.88868 5.78947 22004 ft 400 kts 145°
2026-05-08 05:30 43.86680 5.81290 21518 ft 397 kts 145°
2026-05-08 05:30 43.84501 5.83621 21038 ft 395 kts 145°
2026-05-08 05:31 43.82354 5.85914 20563 ft 392 kts 145°
2026-05-08 05:31 43.80205 5.88204 20135 ft 389 kts 144°
2026-05-08 05:31 43.78085 5.90463 20012 ft 388 kts 144°
2026-05-08 05:31 43.75946 5.92741 20010 ft 389 kts 144°
2026-05-08 05:32 43.73794 5.95031 20007 ft 389 kts 144°
2026-05-08 05:32 43.71665 5.97295 19767 ft 386 kts 144°
2026-05-08 05:32 43.69525 5.99566 18944 ft 393 kts 144°
2026-05-08 05:32 43.67382 6.01835 18216 ft 394 kts 144°
2026-05-08 05:33 43.65227 6.04120 17528 ft 387 kts 144°
2026-05-08 05:33 43.63114 6.06358 16698 ft 384 kts 143°
2026-05-08 05:33 43.61072 6.08628 15898 ft 381 kts 137°
2026-05-08 05:33 43.59388 6.11464 15184 ft 380 kts 122°
2026-05-08 05:34 43.58255 6.14701 14630 ft 375 kts 112°
2026-05-08 05:34 43.57341 6.18020 14124 ft 368 kts 111°
2026-05-08 05:34 43.56470 6.21298 13631 ft 364 kts 111°
2026-05-08 05:34 43.55602 6.24535 13154 ft 361 kts 111°
2026-05-08 05:35 43.54729 6.27744 12677 ft 359 kts 111°
2026-05-08 05:35 43.53842 6.30978 12197 ft 357 kts 111°
2026-05-08 05:35 43.52976 6.34119 11931 ft 347 kts 111°
2026-05-08 05:35 43.52140 6.37142 11790 ft 335 kts 111°
2026-05-08 05:36 43.51326 6.40078 11643 ft 324 kts 111°
2026-05-08 05:36 43.50422 6.42874 11483 ft 313 kts 120°
2026-05-08 05:36 43.49166 6.45266 11219 ft 306 kts 131°
2026-05-08 05:36 43.47722 6.47396 10923 ft 301 kts 134°
2026-05-08 05:37 43.46291 6.49414 10498 ft 296 kts 134°
2026-05-08 05:37 43.44874 6.51414 10043 ft 291 kts 134°
2026-05-08 05:37 43.43490 6.53384 9652 ft 285 kts 134°
2026-05-08 05:37 43.42138 6.55320 9286 ft 278 kts 133°
2026-05-08 05:38 43.40787 6.57261 8930 ft 279 kts 133°
2026-05-08 05:38 43.39470 6.59184 8581 ft 278 kts 129°
2026-05-08 05:38 43.38540 6.61453 8214 ft 277 kts 106°
2026-05-08 05:38 43.38245 6.64065 7935 ft 273 kts 93°
2026-05-08 05:39 43.38151 6.66659 7735 ft 273 kts 92°
2026-05-08 05:39 43.38076 6.69261 7544 ft 272 kts 92°
2026-05-08 05:39 43.37996 6.71850 7495 ft 272 kts 92°
2026-05-08 05:39 43.37909 6.74439 7492 ft 272 kts 92°
2026-05-08 05:40 43.37815 6.77044 7490 ft 273 kts 93°
2026-05-08 05:40 43.37717 6.79674 7490 ft 273 kts 93°
2026-05-08 05:40 43.37618 6.82239 7462 ft 270 kts 92°
2026-05-08 05:40 43.37516 6.84798 7158 ft 269 kts 92°
2026-05-08 05:41 43.37413 6.87385 6774 ft 270 kts 92°
2026-05-08 05:41 43.37311 6.89947 6440 ft 268 kts 92°
2026-05-08 05:41 43.37221 6.92494 6115 ft 267 kts 92°
2026-05-08 05:41 43.37136 6.95029 5811 ft 265 kts 92°
2026-05-08 05:42 43.37054 6.97500 5659 ft 257 kts 92°
2026-05-08 05:42 43.37042 6.99920 5495 ft 249 kts 80°
2026-05-08 05:42 43.37689 7.02038 5318 ft 240 kts 49°
2026-05-08 05:42 43.39002 7.03356 5095 ft 234 kts 18°
2026-05-08 05:43 43.40581 7.03519 4788 ft 232 kts 346°
2026-05-08 05:43 43.41999 7.02484 4482 ft 232 kts 317°
2026-05-08 05:43 43.43031 7.00839 4342 ft 225 kts 309°
2026-05-08 05:43 43.43991 6.99199 4235 ft 215 kts 310°
2026-05-08 05:44 43.44941 6.97713 4108 ft 202 kts 317°
2026-05-08 05:44 43.46115 6.96765 3980 ft 189 kts 350°
2026-05-08 05:44 43.47387 6.96970 3994 ft 188 kts 20°
2026-05-08 05:44 43.48529 6.97849 3998 ft 188 kts 36°
2026-05-08 05:45 43.49535 6.98999 3995 ft 188 kts 41°
2026-05-08 05:45 43.50505 7.00230 3976 ft 189 kts 43°
2026-05-08 05:45 43.51443 7.01475 3788 ft 188 kts 44°
2026-05-08 05:45 43.52371 7.02737 3536 ft 186 kts 44°
2026-05-08 05:46 43.53275 7.03982 3291 ft 186 kts 44°
2026-05-08 05:46 43.54187 7.05241 3044 ft 185 kts 44°
2026-05-08 05:46 43.55091 7.06491 2799 ft 184 kts 44°
2026-05-08 05:46 43.55993 7.07739 2555 ft 184 kts 44°
2026-05-08 05:47 43.56895 7.08986 2311 ft 183 kts 44°
2026-05-08 05:47 43.57788 7.10218 2067 ft 180 kts 43°
2026-05-08 05:47 43.58638 7.11391 1855 ft 166 kts 43°
2026-05-08 05:47 43.59441 7.12499 1628 ft 162 kts 43°
2026-05-08 05:48 43.60233 7.13592 1412 ft 161 kts 41°
2026-05-08 05:48 43.61014 7.14669 1185 ft 153 kts 41°
2026-05-08 05:48 43.61745 7.15679 982 ft 148 kts 40°
2026-05-08 05:48 43.62471 7.16678 797 ft 147 kts 40°
2026-05-08 05:49 43.63192 7.17671 606 ft 147 kts 40°
2026-05-08 05:49 43.63918 7.18673 410 ft 146 kts 40°
2026-05-08 05:49 43.64635 7.19661 220 ft 146 kts 40°
2026-05-08 05:49 43.65356 7.20648 43 ft 145 kts 40°
2026-05-08 05:50 43.66021 7.21559 21 ft 117 kts 43°
2026-05-08 05:50 43.66413 7.22100 21 ft 39 kts 45°
2026-05-08 05:50 43.66568 7.22313 21 ft 22 kts 44°
2026-05-08 05:50 43.66666 7.22449 21 ft 13 kts 45°
2026-05-08 05:51 43.66729 7.22498 21 ft 9 kts 354°
2026-05-08 05:51 43.66781 7.22447 21 ft 9 kts 314°
2026-05-08 05:51 43.66816 7.22398 21 ft 6 kts 308°
2026-05-08 05:51 43.66816 7.22340 21 ft 6 kts 244°
2026-05-08 05:52 43.66781 7.22286 21 ft 8 kts 224°
2026-05-08 05:52 43.66739 7.22229 21 ft 9 kts 225°
2026-05-08 05:52 43.66689 7.22159 21 ft 10 kts 225°
2026-05-08 05:52 43.66625 7.22071 21 ft 16 kts 225°
2026-05-08 05:53 43.66532 7.21943 21 ft 20 kts 225°
2026-05-08 05:53 43.66433 7.21807 21 ft 20 kts 225°
2026-05-08 05:53 43.66349 7.21691 21 ft 9 kts 225°
2026-05-08 05:53 43.66325 7.21614 21 ft 9 kts 289°
2026-05-08 05:54 43.66366 7.21545 21 ft 8 kts 309°
2026-05-08 05:54 43.66371 7.21479 21 ft 5 kts 251°
2026-05-08 05:54 43.66360 7.21425 21 ft 6 kts 259°
2026-05-08 05:54 43.66369 7.21366 21 ft 7 kts 320°
2026-05-08 05:55 43.66413 7.21338 21 ft 6 kts 338°
2026-05-08 05:55 43.66428 7.21329 21 ft 0 kts 338°
2026-05-08 05:55 43.66429 7.21329 21 ft 0 kts 338°